Location: Big Meadows
(38.5260°N, 78.4400°W)
Time: 01:11:47
(UTC-05:00)

Daily predictions for brighter satellites

Satellite Brightness Start Highest point End
(mag) Time Altitude Azimuth Time Altitude Azimuth Time Altitude Azimuth
Cosmos 2369 Rocket 2.9 04:12:46 49° NE 04:12:46 49° NE 04:16:52 10° NNE
ADEOS II 3.2 04:16:19 10° NNE 04:19:22 36° NNE 04:19:22 36° NNE
Cosmos 1371 Rocket 4.5 04:32:01 52° NNE 04:32:01 52° NNE 04:35:55 10° NNE
ATLAS CENTAUR R/B 3.5 04:35:03 51° NW 04:36:58 89° SW 04:53:17 10° SE
USA 234 3.4 04:43:52 10° NE 04:50:10 53° NW 04:51:19 48° WNW
Cosmos 2263 4.0 04:51:26 67° W 04:51:49 69° WNW 04:57:26 10° NNE
Cosmos 2266 Rocket 3.8 04:46:49 10° NNW 04:52:54 64° W 04:58:52 10° S
COSMO-SKYMED 1 4.3 04:51:35 10° SE 04:55:26 32° ENE 04:59:19 10° N
CZ-4B R/B 4.0 04:52:47 10° N 04:56:41 35° NW 04:56:41 35° NW
ATLAS 5 CENTAUR R/B 1.6 04:58:27 70° WNW 04:58:39 71° NW 05:03:45 10° NNE
Cosmos 1943 Rocket 2.0 05:03:56 37° SW 05:06:12 75° WNW 05:11:46 10° NNE
Cosmos 407 Rocket 3.6 05:01:00 10° NNW 05:06:24 80° ENE 05:11:43 10° SSE
Cosmos 972 Rocket 4.2 05:09:25 46° WNW 05:09:25 46° WNW 05:14:32 10° N
Cosmos 1867 4.5 05:12:26 30° NW 05:12:26 30° NW 05:17:06 10° NNE
Meteor 1-26 Rocket 4.3 05:06:40 10° S 05:12:24 83° E 05:18:04 10° N
Lacrosse 5 1.7 05:12:00 43° SW 05:13:41 79° NW 05:18:46 10° NE
Meteor 2-10 Rocket 3.4 05:09:19 10° S 05:14:18 81° E 05:19:21 10° N
CZ-4C R/B 2.8 05:12:00 10° SSW 05:17:01 54° ESE 05:22:38 10° NE
Sich 1 Rocket 3.5 05:13:38 10° NNW 05:18:10 69° W 05:22:36 10° S
Tiangong 1 1.7 05:19:06 43° SSE 05:19:09 43° SSE 05:21:58 10° ENE
Okean-O 2.9 05:19:45 10° N 05:23:58 44° WNW 05:25:06 36° WSW
Cosmos 1908 Rocket 3.7 05:25:52 10° NNW 05:30:13 52° W 05:34:33 10° S
Cosmos 1190 Rocket 4.1 05:26:09 10° NNW 05:31:14 51° WSW 05:36:19 10° S
Meteor 1-31 Rocket 3.6 05:28:24 10° N 05:31:27 31° WNW 05:31:27 31° WNW
Okean 1-7 2.9 05:27:45 10° S 05:32:02 89° E 05:36:19 10° N
Cosmos 1140 Rocket 4.2 05:27:54 10° N 05:33:03 57° ENE 05:38:12 10° SSE
Cosmos 1244 Rocket 4.4 05:27:20 10° NNW 05:33:33 66° W 05:39:38 10° S
CZ-4B R/B 4.5 05:31:26 10° N 05:34:59 33° WNW 05:35:27 32° W
Cosmos 1782 Rocket 3.5 05:31:01 10° N 05:35:31 81° W 05:39:57 10° S
SKYMED 2 3.5 05:39:06 10° S 05:43:24 71° W 05:47:45 10° NNW
Cosmos 2056 Rocket 4.5 05:43:44 23° W 05:45:00 25° WNW 05:49:15 10° N
Cosmos 2219 3.8 05:42:56 10° NNW 05:48:35 60° ENE 05:54:08 10° SE
Okean 2 Rocket 2.9 05:47:57 10° NNW 05:52:20 71° W 05:56:42 10° S
SL-08 R/B 4.5 05:46:23 10° N 05:52:40 75° W 05:58:58 10° S
NOAA 6 4.4 05:49:40 10° N 05:54:32 43° WNW 05:59:21 10° SW
Cosmos 2369 Rocket 3.7 05:54:36 15° WNW 05:55:51 16° NW 05:59:18 10° NNW
S3M 4.0 05:51:12 10° SSW 05:57:30 65° W 06:03:46 10° N
Cosmos 2227 Rocket 4.5 05:53:36 10° N 05:58:07 24° NE 06:02:36 10° ESE
Cosmos 1954 Rocket 4.0 05:54:08 10° NNW 05:59:22 61° WSW 06:04:36 10° S
ADEOS II 3.9 05:58:57 10° NW 06:00:20 11° WNW 06:00:20 11° WNW
Cosmos 1420 Rocket 3.9 05:58:42 10° SSW 06:03:51 68° WNW 06:09:01 10° NNE
Ariane Rocket 3.0 05:58:57 10° NNE 06:04:04 82° WNW 06:09:07 10° SSW
Cosmos 1553 Rocket 4.1 06:00:44 10° SSW 06:06:41 52° W 06:12:47 10° N
SL-12 R/B (Aux Motor) 4.1 06:04:26 12° NW 06:07:12 59° NNE 06:09:10 10° ESE
CZ-2C R/B 3.3 06:04:04 10° NNE 06:08:51 54° E 06:13:45 10° S
Lacrosse 5 rocket 3.9 06:09:42 10° NNE 06:10:23 10° NNE 06:11:03 10° NE
Cosmos 2151 Rocket 3.7 06:06:28 10° N 06:11:00 84° E 06:15:29 10° S
Cosmos 1656 Rocket 4.1 06:11:39 10° SW 06:17:02 43° WNW 06:22:27 10° N
Meteor 1-27 Rocket 4.3 06:12:01 10° S 06:17:40 65° E 06:23:28 10° NNE
Cosmos 1607 4.4 06:12:26 10° SSW 06:18:28 65° ESE 06:24:34 10° NE
SeaSat 1 4.4 06:14:15 10° NE 06:18:46 35° ESE 06:23:14 10° S
SMAP 3.7 06:20:48 10° NNE 06:25:25 61° E 06:30:01 10° S
Cosmos 1452 Rocket 4.5 06:22:08 10° WSW 06:26:31 26° WNW 06:30:57 10° N
Cosmos 1782 3.4 06:27:02 10° SW 06:30:40 34° WNW 06:34:20 10° NNW
